sat.trackr.live / text

‹ back to catalog

STARLINK-31344

NORAD 59171 · 2024-044V

PAYLOAD ACTIVE UNKNOWN

§ Identity

Operator
Country
US
Launch date
2024-03-04
Launch site
AFETR
Launch vehicle
Mass (kg)
RCS (m²)

Purposes: comms

External: N2YO · Heavens-Above · Gunter

§ Orbital elements

Epoch: 2026-09-20T21:01:34.880160Z

Period
94.27 min
Inclination
43.0036°
Eccentricity
0.0001150
Mean motion
15.27573620 rev/d
Perigee alt
482.3 km
Apogee alt
483.9 km
Semi-major
6,861.2 km
B*
-4.5098e-5
RAAN
84.9849°
Arg perigee
277.7598°
Mean anomaly
82.3123°
Rev number
14,344

§ Raw data

STARLINK-313441 59171U 24044V   26263.87609815 -.00001503  00000+0 -45098-4 0  99902 59171  43.0036  84.9849 0001150 277.7598  82.3123 15.27573620143448

JSON: /api/v1/satellites/59171 · /tle

For live sub-satellite position, see the globe view (requires WebGL).

§ Visibility from observer

Set your observer location to see the next 7 days of passes ≥ 10°. The values pass through the URL so the page stays shareable.

No JS? Fill the form by hand. The geolocation button needs JavaScript.